Theta_e
327 326 323 326 326 324 327 328 329 330 337 338 352 353 354 355 358 359 357 354 353 352 352 352 353 352 351 350 347 344 341 342 337 336 337 343 346 349 352 356 362 364 363 363
327 325 323 324 326 325 327 327 331 331 334 337 348 354 358 357 359 360 359 356 353 353 350 349 350 348 346 346 345 342 341 343 346 358 358 357 357 358 359 361 362 362 363 363
328 325 325 325 326 327 327 327 329 332 332 341 348 355 357 358 359 361 359 357 356 353 352 350 348 346 347 350 350 347 352 359 361 362 360 357 356 356 357 359 358 359 359 357
328 327 327 327 325 327 327 327 329 333 336 342 345 352 354 355 356 360 359 358 357 353 351 352 354 357 358 358 357 359 358 355 356 356 354 350 350 352 356 356 356 356 356 355
331 328 327 326 326 329 329 331 331 330 333 337 344 347 351 352 354 358 358 357 357 355 355 356 357 358 357 355 354 350 346 342 337 335 334 333 333 332 334 336 340 343 344 345
328 328 327 328 328 329 329 332 332 331 333 340 347 352 352 348 351 356 356 355 355 355 355 355 356 355 354 351 349 345 341 335 332 331 331 335 334 332 330 334 338 337 337 336
332 331 330 329 333 330 332 331 333 332 333 341 348 348 349 347 350 352 353 353 352 354 355 354 353 351 349 347 345 339 332 331 330 328 326 326 326 326 331 335 334 334 333 332
332 334 334 333 335 335 337 335 336 336 333 340 345 346 348 350 351 351 350 349 351 352 352 350 348 347 343 341 337 332 331 331 329 328 328 331 329 331 335 334 333 333 333 332
334 336 336 334 335 334 332 336 340 338 337 342 346 349 351 351 350 349 349 347 347 346 342 339 338 338 338 338 332 332 331 331 332 331 331 332 333 333 332 331 332 331 330 330
340 336 335 334 333 331 335 337 338 339 342 344 348 348 351 349 348 347 344 342 340 338 337 336 335 333 336 330 330 331 333 334 334 335 334 332 333 331 331 331 330 331 330 331
340 336 335 334 336 338 339 340 340 341 343 347 348 349 349 348 347 343 341 338 337 337 337 337 332 334 331 331 331 335 336 335 333 331 331 330 328 327 327 327 327 328 328 328
339 336 336 336 334 336 340 341 342 343 344 344 346 346 345 345 343 340 338 336 336 336 333 332 331 333 331 331 330 333 333 331 329 327 326 326 326 328 329 328 327 324 320 321
336 332 333 334 334 335 339 339 339 341 342 343 341 341 341 340 338 335 335 332 333 332 333 332 334 332 329 331 328 329 329 328 328 326 327 328 329 330 330 327 324 323 322 320
330 332 335 333 335 335 337 335 334 335 336 338 335 337 335 334 332 334 334 334 334 333 333 332 332 332 329 326 325 327 329 328 327 328 328 329 329 327 325 323 322 321 319 320
331 330 331 332 333 333 334 335 336 336 336 335 334 335 335 336 336 335 333 332 332 332 332 331 331 329 328 326 328 330 330 329 329 328 328 325 323 322 321 319 318 319 319 319
332 330 330 332 332 333 333 335 336 335 333 332 332 332 332 332 332 330 330 330 330 330 331 330 329 329 328 328 330 330 329 327 324 323 322 321 320 318 317 318 318 318 318 318
334 334 332 332 333 332 332 332 333 332 332 332 330 329 329 329 329 329 330 331 331 331 330 329 328 329 328 329 328 325 324 322 320 319 318 317 316 317 316 315 315 314 314 314
332 331 329 329 331 332 331 330 330 329 330 328 328 329 330 330 331 331 332 330 328 328 328 328 328 328 327 323 321 320 319 318 316 316 315 315 314 313 312 312 311 311 311 311
328 329 328 328 329 331 331 329 328 328 328 329 330 330 330 330 330 330 328 328 329 330 329 328 326 324 319 317 316 316 315 314 314 314 313 311 311 311 310 310 310 309 309 309
327 326 326 327 327 327 328 328 328 329 329 328 328 328 329 328 327 328 329 330 329 328 327 323 320 317 315 314 312 314 314 314 313 310 310 309 308 308 307 308 308 308 308 308
329 326 327 327 327 326 326 326 326 327 326 326 328 328 328 328 330 329 329 328 327 324 321 317 317 314 314 313 312 312 312 310 309 309 308 307 307 307 307 307 307 307 306 305
330 330 327 326 326 325 324 324 326 327 328 328 328 328 329 330 329 329 328 327 324 319 316 315 315 311 311 310 312 311 310 309 307 306 306 306 306 307 307 306 305 304 304 303
328 328 326 326 326 326 325 326 327 327 328 328 328 329 329 329 329 330 329 325 322 316 316 313 309 309 308 311 310 310 309 307 306 306 306 306 306 306 305 304 303 302 301 301
329 327 328 327 327 326 328 326 324 326 327 327 327 327 327 328 328 327 326 323 317 314 312 310 309 308 307 310 310 309 307 306 305 305 305 304 304 304 303 303 301 301 301 301
326 323 324 325 327 327 326 326 327 327 327 327 327 326 326 326 327 327 325 318 313 311 308 307 308 307 308 308 307 307 306 305 304 303 303 302 302 302 302 301 301 301 301 302
328 328 327 325 326 327 326 326 326 326 326 327 325 322 321 321 323 323 318 314 311 308 308 310 305 307 307 306 306 306 305 304 304 303 301 300 301 302 302 302 303 303 303 304
324 323 326 326 325 324 323 323 326 326 323 323 323 320 318 319 319 317 313 309 307 309 305 306 306 306 306 305 305 305 304 303 302 303 303 300 300 301 301 301 301 302 302 304
Wind_Speed
17 11 7 6 8 13 13 10 10 9 11 10 17 20 19 15 12 10 9 8 7 8 8 11 12 11 10 11 13 15 14 11 10 10 13 17 19 18 14 12 12 12 11 13
18 13 13 14 9 11 11 4 7 3 9 12 13 13 14 15 14 13 13 11 9 8 10 10 10 10 10 9 9 10 9 8 8 5 6 7 7 8 8 9 10 9 10 11
16 8 6 8 14 16 10 8 9 8 13 9 12 18 20 18 17 18 16 14 12 10 9 10 10 10 10 8 7 7 4 2 0 1 3 5 6 8 9 9 9 9 9 10
6 7 12 5 2 15 18 12 15 10 11 14 20 25 23 22 22 20 17 13 11 10 7 9 11 9 10 10 11 10 8 7 6 5 4 4 5 6 6 6 7 7 8 8
4 8 3 5 6 8 9 12 15 15 16 14 13 12 12 19 21 20 18 12 11 11 10 9 9 11 11 10 11 12 10 8 6 5 4 4 5 6 7 8 8 8 8 9
4 6 10 9 7 6 8 12 12 15 14 14 15 12 13 22 20 15 14 14 15 13 13 11 11 12 12 10 8 8 7 6 3 2 4 5 7 8 8 9 10 10 11 12
5 4 5 2 4 6 7 10 0 5 11 14 17 10 8 16 17 16 17 18 16 15 14 14 16 16 16 15 13 11 8 3 2 4 5 7 8 10 12 11 13 14 15 15
3 5 9 2 4 7 3 2 3 4 8 14 7 7 10 15 18 17 19 21 19 19 17 15 13 12 12 11 11 9 7 5 5 7 8 9 11 12 11 12 13 15 15 16
6 1 1 3 8 11 10 8 4 7 8 13 12 12 14 14 17 17 22 21 17 17 16 12 12 11 11 10 9 7 7 7 9 11 12 12 13 14 15 17 17 19 20 21
2 2 3 3 3 4 5 5 3 6 12 12 13 14 15 14 14 14 17 17 15 15 15 14 13 13 7 9 10 9 8 10 11 12 15 16 15 15 16 18 20 19 21 23
2 3 3 5 6 5 7 9 10 8 10 14 15 14 15 14 13 15 17 16 16 15 12 12 13 10 7 9 10 8 7 9 11 12 14 16 17 18 19 19 19 20 21 22
2 1 2 2 4 2 6 8 8 14 12 10 13 13 12 10 12 13 14 14 15 16 16 12 8 8 10 9 8 6 8 11 13 15 16 16 16 17 17 22 24 24 25 27
2 1 2 2 3 3 6 7 7 8 8 11 10 13 11 6 4 4 8 13 12 12 9 6 9 10 9 7 7 10 10 13 14 14 15 17 18 19 21 23 23 27 30 30
3 2 0 3 2 4 6 7 7 11 9 6 7 9 10 7 7 9 9 9 9 7 7 9 7 8 5 9 11 10 12 15 13 14 16 17 18 20 22 24 27 30 31 30
3 3 4 3 1 3 4 6 6 6 6 7 7 7 6 9 11 10 8 9 10 9 6 3 3 7 10 10 10 11 11 12 13 14 15 18 21 22 24 27 28 29 30 32
8 5 3 2 0 1 2 2 3 5 6 7 8 9 9 11 12 12 9 7 4 2 2 4 7 9 9 9 9 10 10 11 12 14 18 20 22 24 25 25 26 27 26 26
4 3 1 2 3 1 4 4 5 6 8 10 13 14 14 13 10 7 5 3 2 2 5 7 10 9 9 7 6 7 10 12 14 17 19 21 22 23 24 24 23 24 27 28
7 9 8 5 2 5 6 5 9 11 11 14 13 11 9 7 6 4 4 2 2 7 8 8 8 6 3 3 5 8 10 14 16 18 19 20 21 23 23 22 22 24 27 29
7 4 4 5 4 7 9 11 12 13 14 11 9 8 6 4 4 3 3 4 6 7 5 4 5 3 2 6 9 9 12 15 17 18 18 19 19 19 20 20 21 24 26 27
12 12 10 11 8 13 14 14 13 12 10 8 7 5 4 3 2 2 2 4 4 5 4 0 2 1 4 8 12 10 12 15 17 17 17 18 18 19 21 21 22 23 25 26
8 9 10 10 8 9 11 9 9 9 6 5 6 4 3 2 2 0 2 4 4 2 5 4 3 5 8 8 10 11 14 16 17 17 17 18 19 19 20 21 22 23 24 25
4 4 4 5 6 7 6 7 7 7 6 5 4 3 2 1 1 1 1 2 1 5 4 5 6 9 10 11 11 13 14 15 15 17 18 18 18 18 19 20 21 22 23 24
4 3 5 5 6 5 4 3 3 2 3 3 2 1 1 2 3 4 3 1 4 5 5 6 8 11 14 10 11 11 13 15 16 19 18 18 17 17 18 19 21 22 23 25
4 5 5 5 4 2 2 2 1 1 2 2 2 2 1 4 4 2 1 0 7 7 6 5 7 10 12 10 11 13 16 19 20 19 19 17 17 17 18 20 21 22 23 24
1 2 4 5 5 4 5 4 3 4 4 3 3 4 3 1 3 1 2 7 10 7 4 4 7 8 9 10 12 14 17 20 20 20 20 19 18 17 18 19 21 23 22 24
0 3 4 5 5 4 3 2 2 2 1 1 2 2 2 3 2 2 5 10 9 5 3 5 5 4 7 11 14 15 15 16 18 19 20 22 22 22 21 22 24 26 27 28
4 5 4 4 5 6 5 4 3 2 1 1 2 2 2 1 2 6 11 11 8 4 4 4 4 5 6 7 11 13 14 16 18 16 17 19 21 20 21 22 23 23 24 24
Wind_Direction
235 232 204 254 193 184 203 206 210 217 213 239 209 202 192 184 178 185 198 202 192 179 175 183 181 180 191 207 223 231 245 251 265 281 298 296 290 289 281 278 272 274 276 266
233 227 220 240 239 202 212 186 266 217 234 239 230 192 198 196 186 194 202 201 206 194 171 173 180 187 203 217 220 223 236 256 276 308 334 333 321 309 295 287 285 279 272 267
228 216 179 246 218 200 210 195 218 205 228 177 190 199 200 195 192 199 203 196 199 205 189 162 172 179 192 188 183 197 220 232 71 19 14 355 338 330 328 317 304 300 292 287
215 159 227 249 231 208 209 222 211 245 247 213 209 206 200 193 193 198 204 192 194 186 166 144 141 141 149 150 141 141 138 123 112 106 91 56 28 11 355 337 319 312 310 305
201 205 291 220 184 184 180 231 220 228 242 246 238 197 208 205 198 195 198 185 181 162 143 131 120 117 121 124 133 131 123 109 94 79 51 26 6 355 339 330 325 324 316 309
163 216 225 221 166 186 209 267 187 207 223 205 165 184 220 192 186 178 170 156 150 139 135 135 136 137 131 130 131 124 127 126 113 45 347 329 324 315 308 304 300 299 296 297
183 223 269 259 165 202 213 268 42 229 237 196 195 209 197 159 162 161 152 140 141 142 147 150 152 155 155 162 165 159 154 166 267 296 305 304 304 303 302 302 299 297 298 299
146 200 242 52 148 212 3 301 262 184 215 204 176 116 141 153 143 142 136 137 145 144 151 157 159 159 156 168 164 170 190 227 256 276 286 288 299 304 298 293 293 294 293 297
215 197 19 275 277 291 292 280 259 168 175 168 143 148 145 138 137 138 140 141 147 141 135 147 161 169 173 180 188 204 231 250 273 285 292 294 293 294 298 297 297 298 296 295
211 164 258 298 266 274 306 280 209 144 152 158 137 137 129 128 130 128 146 150 151 151 165 170 180 184 188 193 212 226 253 275 284 294 298 300 298 296 294 293 295 295 296 297
265 270 262 82 54 58 77 97 103 98 122 124 126 134 137 142 145 154 161 161 162 163 170 179 190 206 213 225 232 250 266 284 295 300 299 297 294 292 292 291 287 291 292 293
78 14 33 44 357 76 115 102 95 117 117 122 134 138 147 156 159 158 164 167 176 184 180 174 169 228 235 239 247 272 287 294 297 297 296 297 298 300 295 295 297 295 292 289
354 299 279 219 126 104 104 100 102 101 133 133 138 141 143 121 163 205 184 170 159 158 169 158 190 206 223 233 285 294 289 290 295 298 298 299 300 300 301 301 297 295 296 294
250 272 146 224 138 121 120 115 107 96 111 123 136 151 144 116 132 164 173 150 133 152 165 183 195 223 265 300 296 284 284 289 292 290 292 294 295 297 298 298 299 299 297 295
4 275 281 301 5 127 134 151 145 110 107 98 89 109 143 153 149 137 117 123 142 158 161 179 251 295 299 292 285 284 290 296 297 297 295 293 294 293 293 294 294 294 298 297
326 324 307 272 249 237 214 172 154 86 82 80 90 90 94 104 111 115 118 125 130 173 212 248 269 287 287 281 283 290 294 300 302 299 296 294 294 293 293 294 296 297 297 294
290 291 240 277 287 23 62 78 103 110 114 107 110 114 113 114 115 115 113 117 162 252 280 284 286 291 287 284 289 299 303 304 303 300 296 294 294 294 296 295 292 291 290 294
261 277 279 275 258 160 126 118 132 138 119 117 116 113 108 106 97 95 105 106 307 293 297 301 301 306 325 341 328 317 313 308 304 301 300 299 299 298 294 291 288 290 295 297
12 331 293 267 227 157 134 129 121 122 119 121 114 101 92 79 72 59 16 318 298 297 336 353 345 36 27 334 333 322 314 310 308 305 304 302 300 299 296 294 296 297 297 299
42 50 65 77 104 124 117 115 119 114 114 114 115 110 104 84 30 355 348 313 324 310 307 326 103 20 349 345 342 328 322 317 316 313 311 309 307 304 303 304 304 306 307 306
43 57 74 87 90 95 104 115 118 118 126 127 130 140 132 105 121 207 331 338 4 40 120 116 71 25 7 350 346 341 337 330 322 319 319 317 316 316 316 317 317 316 315 315
11 38 87 91 89 93 100 119 123 131 138 150 154 145 142 108 18 87 72 334 62 120 112 74 51 24 360 5 348 342 336 335 331 332 333 330 329 327 329 330 328 329 329 328
64 96 108 99 93 96 123 131 120 151 172 180 193 207 308 321 305 279 284 18 136 142 107 80 40 16 11 3 348 340 344 349 348 348 344 342 343 347 343 343 345 344 343 342
62 95 101 109 109 83 306 352 290 150 146 103 92 35 341 287 248 241 328 236 155 133 108 70 28 14 14 4 355 2 4 5 2 1 360 1 1 360 2 3 0 359 360 2
360 32 56 40 16 348 340 5 59 79 82 88 76 60 54 334 313 66 131 146 145 123 92 58 25 11 17 12 18 21 25 27 25 21 19 18 20 22 26 25 20 21 24 30
49 58 67 67 66 64 53 34 31 42 354 214 157 119 90 36 39 113 131 142 135 122 57 17 30 24 27 26 29 30 30 28 31 35 38 39 44 46 47 50 52 52 54 58
100 103 99 86 48 32 23 10 331 307 228 176 162 120 31 24 136 148 149 142 132 77 60 25 25 25 19 17 27 33 38 37 36 37 40 45 51 52 52 52 54 56 56 57